Regional Weather Roundup
Issued by NWS

Home | Current Version | Previous Version | Graphics & Text | Print | Product List | Glossary On
Versions: 1 2 3 4 5 6 7 8 9 10 11 12 13 14 15 16 17 18 19 20 21 22 23 24 25 26 27 28 29 30 31 32 33 34 35 36 37 38 39 40 41 42 43 44 45 46 47 48 49 50
000
ASUS43 KDMX 180706
RWRIA

WEATHER ROUNDUP FOR IOWA
NATIONAL WEATHER SERVICE DES MOINES IA
100 AM CST THU JAN 18 2018

NOTE: "FAIR" INDICATES FEW OR NO CLOUDS BELOW 12,000 FEET WITH NO
SIGNIFICANT WEATHER AND/OR OBSTRUCTIONS TO VISIBILITY.

* - THESE STATIONS ARE NOT NWS STATIONS...THUS NOT UNDER NWS
QUALITY CONTROL.  THEY ALSO DO NOT REPORT WEATHER SUCH
AS PRECIPITATION OR FOG.

IAZ001>003-012>014-020>022-031>034-043>046-180800-
   NORTHWEST IOWA

CITY           SKY/WX    TMP DP  RH WIND       PRES   REMARKS
CARROLL *      CLEAR     21  14  73 SW21G28   30.17F WCI   6
CHEROKEE *     CLOUDY    19  14  82 SW8       30.16F WCI   9
DENISON *      CLOUDY    19  12  73 SW14      30.20F WCI   6
LE MARS *      CLOUDY    18  14  86 S3        30.16S
ORANGE CITY *  CLOUDY    19  18  93 S9        30.12F WCI   9
SHELDON *      CLOUDY    19  16  86 SW12      30.10F WCI   7
SIOUX CITY     CLOUDY    16  11  80 SE5       30.18F WCI   9
SPENCER        CLOUDY    21  14  74 SW16      30.10F WCI   7
STORM LAKE *   CLOUDY    19  14  79 W17       30.14S WCI   4
$$

IAZ055>058-069>071-079>083-090>094-180800-
   SOUTHWEST IOWA

CITY           SKY/WX    TMP DP  RH WIND       PRES   REMARKS
ATLANTIC *     CLOUDY    16  12  86 SW10      30.24F WCI   3
AUDUBON *      CLOUDY    19  12  73 SW13      30.20F WCI   7
CLARINDA *     CLEAR     14  10  85 S7          N/A  WCI   4
COUNCIL BLFS * CLEAR     19  14  79 S9        30.23F WCI   9
CRESTON *      CLOUDY    19  12  73 SW14G20   30.26F WCI   6
HARLAN  *      CLOUDY    18  12  79 SW13      30.25F WCI   4
LAMONI         CLOUDY    18  11  74 SW15      30.27F WCI   4
RED OAK *      CLOUDY    16  10  79 S7        30.28F WCI   6
SHENANDOAH *   CLOUDY    19  12  73 S10       30.29F WCI   8
$$

IAZ047>049-059>061-072>074-084-180800-
   CENTRAL IOWA

CITY           SKY/WX    TMP DP  RH WIND       PRES   REMARKS
AMES           CLOUDY    21  13  71 W9        30.21F WCI  11
ANKENY *       CLEAR     21  12  68 SW13      30.23F WCI   9
BOONE *        CLOUDY    21  14  73 SW20      30.17F WCI   6
CHARITON *     CLEAR     18  12  79 SW14      30.26F WCI   4
DES MOINES     CLEAR     21  12  68 SW15      30.23F WCI   8
GRINNELL*      CLOUDY    17  11  76 SW17      30.22F WCI   2
KNOXVILLE *    CLEAR     19  10  68 SW15      30.23F WCI   5
MARSHALLTOWN   CLOUDY    19  11  70 W14       30.19F WCI   6
NEWTON *       CLEAR     18  10  73 SW13      30.22F WCI   4
PELLA *        CLEAR     20  12  69 SW9       30.26F WCI   9
PERRY *          N/A     21  12  67 SW10      30.21F WCI  10
$$

IAZ004>006-015-016-023>025-035-036-180800-
   NORTH CENTRAL IOWA

CITY           SKY/WX    TMP DP  RH WIND       PRES   REMARKS
ALGONA *       CLOUDY    19  19 100 SW16      30.11R WCI   5
CLARION *      CLOUDY    18  14  86 SW16      30.13F WCI   3
ESTHERVILLE    CLOUDY    20  16  84 SW14      30.08F WCI   7
FORT DODGE *   CLOUDY    17  11  77 SW13      30.14F WCI   4
MASON CITY     CLOUDY    19  11  70 SW20      30.11F WCI   3
FOREST CITY *    N/A     19  14  79 W7        30.12R WCI  10
WEBSTER CITY * CLOUDY    19  12  73 SW17      30.13F WCI   4
IOWA FALLS *     N/A     21  13  73 SW17      30.16F WCI   6
$$

IAZ007>011-017>019-026>030-037>042-050>054-066-180800-
   NORTHEAST IOWA

CITY           SKY/WX    TMP DP  RH WIND       PRES   REMARKS
CEDAR RAPIDS     N/A     18   9  68 SW9       30.21F WCI   7
CHARLES CITY *   N/A     19  12  73 W14       30.12F WCI   6
CLINTON *        N/A     17  11  77 W17       30.23F WCI   1
DECORAH *        N/A     19  12  73 W9        30.09F WCI   9
DUBUQUE          N/A     17   8  67 SW15      30.15F WCI   2
MONTICELLO *     N/A     19   9  63 SW13      30.19F WCI   7
OELWEIN *        N/A     18  12  79 SW14      30.14F WCI   4
WATERLOO         N/A     17   9  70 SW12      30.16F WCI   4
$$

IAZ064-065-067-068-078-180800-
   EAST CENTRAL IOWA

CITY           SKY/WX    TMP DP  RH WIND       PRES   REMARKS
DAVENPORT        N/A     18   9  68 SW10      30.26F WCI   6
IOWA CITY        N/A     19   9  65 SW8       30.26F WCI   9
MT. PLEASANT * CLOUDY    18  10  73 SW17      30.28F WCI   2
MUSCATINE *      N/A     19  10  68 SW12      30.28F WCI   7
QUAD CITIES      N/A     19  11  70 W16       30.25F WCI   4
$$

IAZ062-063-075>077-085>089-095>099-180800-
   SOUTHEAST IOWA

CITY           SKY/WX    TMP DP  RH WIND       PRES   REMARKS
BURLINGTON     CLOUDY    17   8  67 SW17      30.29F WCI   1
FAIRFIELD *    CLEAR     19   9  63 SW15      30.26F WCI   5
FORT MADISON * CLOUDY    18  10  73 SW14      30.31F WCI   4
KEOKUK *       CLOUDY    18  10  73 SW15      30.32F WCI   3
OSKALOOSA *      N/A     19  12  74 W17       30.26F WCI   4
OTTUMWA        CLEAR     20  10  65 SW17      30.25F WCI   5
WASHINGTON *   CLEAR     18  12  79 SW17      30.26F WCI   2
$$

ABBREVIATIONS USED IN REMARKS
   TC - TEMPERATURES IN CELSIUS
  WCI - WIND CHILL INDEX
   HX - HEAT INDEX
  VSB - VISIBILITY
$$




USA.gov is the U.S. government's official web portal to all federal, state and local government web resources and services.